Voltar ao catálogo

CZ-6A DEB

AtivoSSO
NORAD 54505·DEBRIS·🇨🇳 China

Lançado Nov 11, 2022 de Taiyuan Satellite Launch Center

Loading…

Próximas Passagens (próximas 24 horas)

TLE

AtualizadoSource: Space-Track

Época: Sep 14, 2026, 04:12 UTC

1 54505U 22151JH  26257.17508936  .00002524  00000-0  78793-3 0  9991
2 54505  98.9180 334.0765 0070155 181.3112 178.7902 14.40341597200597

Acompanhe CZ-6A DEB em tempo real com AllMySat

Download on the App Store